Location: Ostrava
(49.8330°N, 18.2830°E)
Time: 04:51:24
(UTC+01:00)

Transit 2A - All Passes

Search period start: 09 December 2016 00:00
Search period end: 19 December 2016 00:00
Orbit: 597 x 963 km, 66.7° (Epoch: 07 December)

Date Brightness Start Highest point End Pass type
(mag) Time Alt. Az. Time Alt. Az. Time Alt. Az.
09 Dec - 06:10:33 10° SSE 06:14:50 20° ESE 06:18:54 10° ENE visible
09 Dec - 07:51:27 10° SW 07:57:32 87° NW 08:03:05 10° NE daylight
09 Dec - 09:36:39 10° W 09:41:26 26° NNW 09:45:53 10° NNE daylight
09 Dec - 11:24:05 10° NW 11:26:32 13° N 11:28:53 10° NNE daylight
09 Dec - 13:09:00 10° NNW 13:12:00 15° NNE 13:14:50 10° NE daylight
09 Dec - 14:51:53 10° NNW 14:56:37 41° NE 15:00:57 10° ESE daylight
09 Dec - 16:35:23 10° NW 16:39:42 33° WSW 16:43:42 10° S visible
10 Dec - 05:37:58 10° SE 05:41:04 15° ESE 05:44:04 10° ENE visible
10 Dec - 07:17:29 10° SSW 07:23:32 72° ESE 07:29:04 10° NE daylight
10 Dec - 09:02:02 10° W 09:07:12 31° NW 09:11:59 10° NNE daylight
10 Dec - 10:49:17 10° NW 10:52:06 14° NNW 10:54:48 10° NNE daylight
10 Dec - 12:35:01 10° NNW 12:37:36 14° NNE 12:40:05 10° NE daylight
10 Dec - 14:17:57 10° NNW 14:22:27 32° NE 14:26:35 10° ESE daylight
10 Dec - 16:01:11 10° NW 16:05:51 48° WSW 16:10:08 10° SSE daylight
11 Dec - 06:43:42 10° SSW 06:49:35 54° ESE 06:55:00 10° NE visible
11 Dec - 08:27:31 10° WSW 08:33:01 38° NW 08:38:04 10° NNE daylight
11 Dec - 10:14:27 10° NW 10:17:42 15° NNW 10:20:47 10° NNE daylight
11 Dec - 12:00:54 10° NNW 12:03:10 13° N 12:05:21 10° NE daylight
11 Dec - 13:44:02 10° NNW 13:48:14 26° NNE 13:52:07 10° E daylight
11 Dec - 15:27:05 10° NW 15:31:56 70° WSW 15:36:22 10° SSE daylight
12 Dec - 06:10:05 10° S 06:15:40 40° ESE 06:20:51 10° NE visible
12 Dec - 07:53:08 10° WSW 07:58:53 49° NW 08:04:08 10° NNE daylight
12 Dec - 09:39:37 10° WNW 09:43:19 18° NNW 09:46:50 10° NNE daylight
12 Dec - 11:26:39 10° NNW 11:28:44 12° N 11:30:44 10° NNE daylight
12 Dec - 13:10:07 10° NNW 13:13:57 21° NNE 13:17:32 10° E daylight
12 Dec - 14:53:03 10° NW 14:57:57 83° NE 15:02:26 10° SE daylight
12 Dec - 16:37:48 10° WNW 16:40:19 15° WSW 16:42:45 10° SW visible
13 Dec - 05:36:42 10° S 05:41:48 29° ESE 05:46:36 10° NE visible
13 Dec - 07:18:52 10° SW 07:24:48 63° NW 07:30:12 10° NNE daylight
13 Dec - 09:04:50 10° WNW 09:08:59 20° NNW 09:12:54 10° NNE daylight
13 Dec - 10:52:13 10° NNW 10:54:16 12° N 10:56:16 10° NNE daylight
13 Dec - 12:36:13 10° NNW 12:39:38 18° NNE 12:42:52 10° ENE daylight
13 Dec - 14:19:03 10° NNW 14:23:55 60° NE 14:28:21 10° SE daylight
13 Dec - 16:03:04 10° WNW 16:06:35 21° WSW 16:09:56 10° SSW daylight
14 Dec - 05:03:33 10° SSE 05:08:00 22° ESE 05:12:11 10° ENE visible
14 Dec - 06:44:44 10° SW 06:50:45 82° NW 06:56:15 10° NE visible
14 Dec - 08:30:06 10° W 08:34:42 24° NNW 08:39:00 10° NNE daylight
14 Dec - 10:17:35 10° NNW 10:19:49 12° N 10:22:00 10° NNE daylight
14 Dec - 12:02:17 10° NNW 12:05:16 15° NNE 12:08:07 10° NE daylight
14 Dec - 13:45:06 10° NNW 13:49:49 44° NE 13:54:09 10° ESE daylight
14 Dec - 15:28:40 10° NW 15:32:49 30° WSW 15:36:41 10° S daylight
15 Dec - 04:30:51 10° SE 04:34:13 16° ESE 04:37:28 10° ENE visible
15 Dec - 06:10:45 10° SSW 06:16:45 77° ESE 06:22:14 10° NE visible
15 Dec - 07:55:27 10° W 08:00:28 29° NW 08:05:06 10° NNE daylight
15 Dec - 09:42:49 10° NW 09:45:23 13° NNW 09:47:53 10° NNE daylight
15 Dec - 11:28:18 10° NNW 11:30:53 14° NNE 11:33:21 10° NE daylight
15 Dec - 13:11:10 10° NNW 13:15:40 34° NE 13:19:48 10° ESE daylight
15 Dec - 14:54:26 10° NW 14:58:58 44° WSW 15:03:10 10° S daylight
16 Dec - 03:59:15 10° ESE 04:00:30 11° ESE 04:01:43 10° E visible
16 Dec - 05:36:54 10° SSW 05:42:47 58° ESE 05:48:10 10° NE visible
16 Dec - 07:20:55 10° WSW 07:26:16 36° NW 07:31:11 10° NNE daylight
16 Dec - 09:07:58 10° NW 09:10:59 15° NNW 09:13:52 10° NNE daylight
16 Dec - 10:54:15 10° NNW 10:56:27 13° N 10:58:35 10° NE daylight
16 Dec - 12:37:15 10° NNW 12:41:27 27° NE 12:45:21 10° E daylight
16 Dec - 14:20:19 10° NW 14:25:05 64° WSW 14:29:27 10° SSE daylight
17 Dec - 05:03:15 10° S 05:08:52 42° ESE 05:14:02 10° NE visible
17 Dec - 06:46:29 10° WSW 06:52:07 45° NW 06:57:16 10° NNE visible
17 Dec - 08:33:07 10° WNW 08:36:37 17° NNW 08:39:55 10° NNE daylight
17 Dec - 10:20:04 10° NNW 10:22:01 12° N 10:23:55 10° NNE daylight
17 Dec - 12:03:21 10° NNW 12:07:11 22° NNE 12:10:47 10° E daylight
17 Dec - 13:46:16 10° NW 13:51:07 90° E 13:55:33 10° SE daylight
17 Dec - 15:31:20 10° WNW 15:33:24 13° WSW 15:35:26 10° SW daylight
18 Dec - 04:29:47 10° S 04:34:59 31° ESE 04:39:49 10° NE visible
18 Dec - 06:12:11 10° SW 06:18:02 58° NW 06:23:21 10° NNE visible
18 Dec - 07:58:18 10° WNW 08:02:16 19° NNW 08:05:59 10° NNE daylight
18 Dec - 09:45:41 10° NNW 09:47:34 12° N 09:49:24 10° NNE daylight
18 Dec - 11:29:27 10° NNW 11:32:53 18° NNE 11:36:08 10° ENE daylight
18 Dec - 13:12:16 10° NNW 13:17:05 65° NE 13:21:30 10° SE daylight
18 Dec - 14:56:25 10° WNW 14:59:41 19° WSW 15:02:48 10° SSW daylight
